STARLINK-4715, 53801

Orbit data source: Space-Track

STARLINK-4715, 53801 is a payload satellite owned by SpaceX/Seattle (US) in LEO that was launched on Sun, 11 Sep 2022 UTC via an FALCON 9 launch vehicle from the Air Force Eastern Test Range (AFETR). Payload-class satellites include a variety of spacecraft equipped with specific instruments for various scientific and technological missions. These include communications satellites like Starlink; space stations such as the ISS; scientific satellites like the Hubble; Earth observation satellites from companies like Planet Labs, Umbra, and HawkEye 360; GPS; miniature CubeSats for education and research; and military/defense satellites.

Loading next visibility...
Identifier
53801, 2022-111AE
Orbit
LEO
Last TLE update
6 hours ago
Origin
Manufacturer
SpaceX/Seattle
Mission
Operational Commercial Communications
Bus & Motor
STARLINK, Unknown motor
Mass
305 kg wet, ~290 kg dry
Launch date (UTC)
2022-09-11 (3 years ago)
Launch vehicle
FALCON 9
Launch site
Air Force Eastern Test Range (AFETR)
Object type
Payload
Rocket body
Debris
Shape & HBR
Box + 1 Pan, 8.86 m
Radar Cross Section
13.562 m², Large (>1 m²)

Expand to show TLE details & history

TLE from 6 hours ago
0 STARLINK-4715
1 53801U 22111AE  25186.57250436  .00009612  00000-0  62184-3 0  9990
2 53801  53.2187 293.2237 0001191 105.2659 254.8465 15.08799998155700
Epoch: 2025-07-05T13:44Z
TLE epoch observation values (Epoch: 2025-07-05T13:44:24.376Z)
Latitude
-0.00002°
Longitude
163.3135°
Altitude
540.979 km
Speed
7.593 km/s
True Right ascension
19h 32m 53s
True Declination
0° 00' 00"
Sunlit
Object was in full shadow at epoch
Visualization orbit readout
Latitude
-49.48912°
Longitude
101.70228°
Altitude
557.736 km
Speed
7.582 km/s
Apparent Right ascension
17h 40m 29s
Apparent Declination
-49° 25' 46"
Sunlit
Object is in full shadow
Visualization observer readout
Local Sidereal Time
07:42:48
Azimuth
124.018° SE
Elevation
-66.474°
Doppler factor
1
Orbital elements
Apogee altitude
540.934 km
Perigee altitude
539.286 km
Semi-major axis
6,918.247 km
Eccentricity
0.00012
Inclination
53.2187°
RAAN
293.2237°
Arg. of periapsis
105.2659°
True anomaly
Unknown
Mean anomaly
254.8465°
Eccentric anomaly
Unknown
Mean motion
3.7718 °/min
Orbital period
95.45 mins
BSTAR
0.00062184
Loading maneuver chart data...
Loading SW <> Apogee altitude chart data...
Loading historical data...
Loading historical data...
Loading historical data...
Loading historical data...
Loading historical data...
Loading historical data...
Loading historical data...

STARLINK-4715 Visibility forecast

Observer location: undefined°, undefined°

Span
Click to sort rows by Start time (UTC) header in descending order
Start Az.
Max El. time (UTC)
Max El. Az.
Max El.
End time (UTC)
End Az.
6 mins2025-07-06 08:58:03.285Z189.232° SSW2025-07-06 09:01:03.285Z134.797° SE26.462°2025-07-06 09:04:03.285Z74.812° E
6 mins2025-07-06 10:38:03.285Z267.911° W2025-07-06 10:40:03.285Z312.793° NW31.852°2025-07-06 10:44:03.285Z37.118° NE
5 mins2025-07-06 15:40:03.285Z345.222° N2025-07-06 15:42:03.285Z40.08° NE28.647°2025-07-06 15:45:03.285Z93.672° ESE
5 mins2025-07-06 17:19:03.285Z281.251° WNW2025-07-06 17:21:03.285Z229.817° WSW31.321°2025-07-06 17:24:03.285Z164.679° S
|